Weather History for Farmington, NM

Change the Weather History Date:

Wednesday, January 23, 2013

  Actual Average Record
Temperature  
Mean Temperature 30 °F -  
Max Temperature 46 °F 43 °F 55 °F (2005)
Min Temperature 15 °F 21 °F 2 °F (1988)
Degree Days  
Heating Degree Days 34    
Moisture  
Dew Point 17 °F    
Average Humidity 63    
Maximum Humidity 84    
Minimum Humidity 24    
Precipitation  
Precipitation 0.00 in - - ()
Sea Level Pressure  
Sea Level Pressure 30.48 in    
Wind  
Wind Speed 5 mph (East)    
Max Wind Speed 12 mph    
Max Gust Speed -    
Visibility 10 miles    
Events      
Averages and records for this station are not official NWS values.
T = Trace of Precipitation, MM = Missing Value Source: NWS Daily Summary

Daily Weather History Graph

Daily Weather History Graph

Search for Another Location

Airport:

Trip Planner

Search our weather history database for the weather conditions in past years. The results will help you decide how hot, cold, wet, or windy it might be!

Date:

Astronomy

Jan. 23, 2013 Rise Set
Actual Time 7:20 AM MST 5:29 PM MST
Civil Twilight 6:53 AM MST 5:56 PM MST
Nautical Twilight 6:21 AM MST 6:28 PM MST
Astronomical Twilight 5:51 AM MST 6:59 PM MST
Moon 2:43 PM MST (1/23) 4:33 AM MST (1/23)
Length of Visible Light 11h 03m
Length of Day
10h 08m
Waxing Gibbous, 89% of the Moon is Illuminated
Jan 23
Waxing Gibbous
Jan 26
Full
Feb 3
Last Quarter
Feb 10
New
Feb 17
First Quarter

Hourly Weather History & Observations

Time (MST) Temp. Windchill Dew Point Humidity Pressure Visibility Wind Dir Wind Speed Gust Speed Precip Events Conditions
12:53 AM 17.1 °F 10.0 °F 12.9 °F 84% 30.48 in 10.0 mi ENE 4.6 mph - N/A   Clear
1:53 AM 15.1 °F 6.4 °F 10.9 °F 84% 30.49 in 10.0 mi ENE 5.8 mph - N/A   Clear
2:53 AM 15.1 °F 9.4 °F 10.9 °F 84% 30.50 in 10.0 mi ENE 3.5 mph - N/A   Clear
3:53 AM 18.0 °F 5.4 °F 12.9 °F 81% 30.46 in 10.0 mi East 11.5 mph - N/A   Clear
4:53 AM 17.1 °F 5.8 °F 12.0 °F 81% 30.47 in 10.0 mi East 9.2 mph - N/A   Clear
5:53 AM 15.1 °F 6.4 °F 10.9 °F 84% 30.53 in 10.0 mi SE 5.8 mph - N/A   Clear
6:53 AM 15.1 °F 5.2 °F 10.9 °F 84% 30.56 in 10.0 mi East 6.9 mph - N/A   Clear
7:53 AM 17.1 °F 7.6 °F 12.9 °F 84% 30.57 in 10.0 mi East 6.9 mph - N/A   Clear
8:53 AM 19.9 °F 10.1 °F 14.0 °F 78% 30.57 in 10.0 mi ESE 8.1 mph - N/A   Clear
9:53 AM 25.0 °F 17.1 °F 17.1 °F 72% 30.57 in 10.0 mi ESE 6.9 mph - N/A   Clear
10:53 AM 30.9 °F 25.2 °F 19.0 °F 61% 30.56 in 10.0 mi ESE 5.8 mph - N/A   Clear
11:53 AM 35.1 °F 32.2 °F 19.0 °F 52% 30.53 in 10.0 mi East 3.5 mph - N/A   Clear
12:53 PM 42.1 °F 37.7 °F 19.9 °F 41% 30.45 in 10.0 mi East 6.9 mph - N/A   Clear
1:53 PM 45.0 °F - 19.9 °F 37% 30.43 in 10.0 mi Calm Calm - N/A   Clear
2:53 PM 46.9 °F - 19.0 °F 33% 30.42 in 10.0 mi Calm Calm - N/A   Clear
3:53 PM 46.9 °F - 19.0 °F 33% 30.38 in 10.0 mi SE 4.6 mph - N/A   Clear
4:53 PM 42.1 °F 39.2 °F 19.0 °F 40% 30.42 in 10.0 mi West 4.6 mph - N/A   Clear
5:53 PM 39.9 °F - 19.0 °F 43% 30.44 in 10.0 mi Calm Calm - N/A   Clear
6:53 PM 34.0 °F 29.8 °F 21.0 °F 59% 30.45 in 10.0 mi ENE 4.6 mph - N/A   Clear
7:53 PM 30.0 °F 24.1 °F 19.9 °F 66% 30.45 in 10.0 mi NNE 5.8 mph - N/A   Clear
8:53 PM 28.9 °F 23.9 °F 21.0 °F 72% 30.47 in 10.0 mi North 4.6 mph - N/A   Clear
9:53 PM 30.0 °F - 21.9 °F 72% 30.45 in 10.0 mi Calm Calm - N/A   Clear
10:53 PM 28.9 °F 21.9 °F 21.0 °F 72% 30.43 in 10.0 mi East 6.9 mph - N/A   Clear
11:53 PM 28.0 °F 22.8 °F 21.0 °F 75% 30.43 in 10.0 mi East 4.6 mph - N/A   Clear